Wind_Speed
12 13 12 12 13 13 14 15 15 15 15 14 14 13 12 12 11 11 11 10 10 9 9 9 8 8 7 6 5 5 5 4 3 2 2 1 1 1 1 1 2 1 1 2 2 3 4 5 6
12 13 13 13 14 14 15 15 16 15 15 14 14 13 12 12 12 11 11 10 9 9 9 10 10 9 8 7 7 6 5 4 3 3 2 1 0 1 1 2 1 0 0 1 2 2 3 4 5
12 13 14 14 14 15 15 16 16 15 15 14 14 13 12 12 11 11 10 9 9 9 10 10 10 9 8 8 7 6 6 5 5 4 3 2 1 1 2 2 1 0 1 1 1 2 3 5 5
12 13 13 14 14 15 15 15 15 15 15 14 14 13 13 13 12 11 10 9 8 9 10 10 10 9 9 9 8 8 7 7 6 6 5 4 3 2 2 2 2 1 1 1 1 3 3 4 6
10 11 13 14 14 15 15 15 15 15 15 15 13 13 13 13 12 11 10 9 8 9 9 10 10 9 10 9 9 9 8 8 7 7 6 5 4 3 3 3 2 2 1 1 1 2 3 5 6
10 11 13 14 15 15 15 15 15 15 15 14 14 13 13 13 11 10 10 10 9 9 10 10 10 10 10 10 10 10 9 9 8 8 7 5 4 3 2 2 2 1 1 1 1 2 3 5 6
11 12 14 14 14 15 15 15 15 15 14 14 14 14 13 13 12 11 10 10 10 10 10 10 11 10 10 10 10 10 9 8 8 8 7 6 4 2 2 2 2 1 1 2 2 2 3 5 6
11 13 14 15 15 15 15 15 15 15 15 14 13 13 13 13 12 12 11 10 10 10 10 10 10 10 10 10 10 9 9 8 8 7 8 7 6 4 3 2 2 2 1 2 2 2 3 4 5
9 12 13 14 15 14 14 15 14 14 14 13 12 12 12 11 12 12 11 11 11 11 10 10 10 10 10 10 9 9 8 8 8 7 8 8 7 6 4 3 3 2 1 1 2 3 4 4 4
9 11 12 13 14 13 13 14 14 13 13 13 13 12 12 11 11 11 11 10 11 11 10 10 10 10 10 10 10 9 8 8 8 8 8 8 7 6 5 4 3 2 1 2 4 5 5 4 4
7 9 11 11 12 13 13 13 13 13 13 13 13 13 12 11 11 11 10 10 10 11 11 10 10 11 10 10 10 9 8 8 8 8 7 7 7 6 6 4 3 3 2 3 5 5 5 5 4
6 7 9 10 11 12 13 13 13 13 12 13 13 13 12 11 11 10 10 10 10 10 10 10 10 10 10 9 8 9 9 9 8 8 7 7 7 7 6 6 5 4 4 4 4 4 4 5 4
5 5 7 8 10 11 11 12 12 12 11 12 12 12 12 12 11 11 10 10 10 10 10 10 10 10 10 8 8 8 8 8 8 8 7 7 7 7 6 6 5 4 4 4 4 3 3 2 2
3 3 4 5 7 9 9 10 10 11 10 11 11 11 11 11 11 11 11 10 10 10 10 9 9 9 9 9 8 8 7 7 7 7 6 7 6 6 6 5 5 4 3 3 3 3 2 1 1
1 1 3 4 5 7 8 9 9 9 9 9 10 10 10 10 10 11 10 9 9 9 9 8 9 9 9 9 8 8 7 6 6 6 5 5 6 5 5 5 4 4 3 2 2 1 1 1 1
1 1 2 3 4 5 6 8 8 8 8 8 9 9 10 9 9 10 10 9 9 9 8 7 8 9 9 8 8 7 7 6 6 5 5 5 5 5 4 4 4 3 2 1 1 1 1 1 2
3 2 2 2 3 4 5 7 7 7 7 7 8 8 8 9 8 8 9 9 9 8 8 7 7 8 7 7 7 8 7 6 5 4 5 5 5 5 4 4 4 4 3 2 2 1 1 2 2
4 3 2 2 2 3 4 6 7 6 7 7 7 7 7 8 8 7 7 8 8 8 8 7 7 7 7 7 7 7 7 6 5 4 4 4 5 5 5 4 3 3 3 3 3 3 2 2 3
6 5 4 3 3 3 4 5 5 5 6 6 6 6 6 6 7 7 7 7 7 7 7 7 6 6 6 6 7 7 6 6 5 5 4 4 4 5 5 4 3 3 3 3 3 2 3 3 3
7 6 5 4 4 4 4 4 4 5 5 6 5 5 5 5 5 6 6 6 6 7 6 6 6 5 5 6 6 6 6 5 5 4 4 5 5 4 4 4 4 4 4 4 4 4 4 4 5
9 8 7 6 7 7 6 5 5 6 5 5 5 5 4 5 5 6 6 6 6 6 6 6 5 5 5 5 6 6 6 6 6 6 6 5 5 4 4 5 5 5 6 5 5 5 5 6 6
10 9 9 8 8 7 7 6 6 6 6 5 5 5 4 5 6 6 6 6 6 6 6 5 5 5 5 5 5 6 6 6 6 6 6 6 6 5 5 6 5 6 7 6 6 6 6 6 6
11 10 9 8 8 8 7 7 5 6 6 5 4 4 5 5 6 6 6 6 6 6 6 6 6 6 6 6 6 6 7 7 7 7 7 7 7 6 6 7 7 8 8 8 7 8 8 7 7
12 11 9 8 8 8 8 8 6 6 6 6 4 4 5 5 6 6 7 6 6 6 7 7 7 7 7 7 7 7 8 9 9 8 8 9 8 8 8 8 9 10 10 10 10 10 10 9 9
13 12 11 10 8 8 9 9 7 7 7 6 6 6 5 5 6 7 8 8 7 7 8 7 7 8 8 8 8 8 9 10 9 9 9 9 9 9 9 10 10 11 11 12 12 12 11 11 11
13 13 13 12 11 10 10 9 7 8 8 7 8 7 8 7 8 8 9 9 8 8 8 8 8 9 9 10 10 10 10 10 10 11 11 11 11 11 11 11 12 12 12 12 12 12 12 13 13
14 14 14 15 14 13 12 10 9 9 8 9 10 9 9 9 9 9 10 10 10 9 9 9 9 10 10 11 11 11 11 11 11 12 12 12 13 13 13 13 14 13 13 13 13 13 14 15 16
16 16 16 16 16 15 13 12 11 11 11 11 11 11 10 10 10 10 11 11 11 11 11 11 11 11 12 12 12 12 13 13 12 13 13 13 13 14 14 15 15 15 15 15 15 15 16 16 17
17 17 17 16 17 17 16 14 13 13 12 12 13 12 12 12 11 12 13 13 13 12 12 12 12 13 13 13 13 14 15 15 14 14 14 14 15 15 16 16 16 17 18 17 17 17 18 18 18
18 19 19 19 18 18 17 15 14 15 13 13 14 14 14 14 13 13 14 15 14 14 13 13 13 14 15 15 15 16 16 16 17 16 16 16 17 17 17 17 18 18 19 19 20 19 20 20 20
Wind_Direction
73 70 69 65 61 62 61 59 56 50 48 46 44 43 41 42 41 37 35 37 34 38 41 40 42 50 65 78 86 86 83 81 78 82 83 89 92 90 79 93 120 156 246 245 241 239 226 214 204
72 70 69 66 64 63 61 59 54 48 46 45 44 44 43 43 41 39 38 37 36 39 44 44 51 58 69 77 78 77 75 71 67 70 77 81 70 97 84 97 118 127 212 222 231 225 210 204 203
76 72 69 68 67 64 61 58 53 47 43 44 46 46 46 44 41 40 38 36 37 41 48 52 55 61 66 71 70 68 69 67 62 64 66 56 55 114 94 80 81 68 201 206 196 190 200 200 201
78 74 69 69 68 65 62 59 54 48 43 45 48 49 46 44 39 42 43 43 43 47 51 55 58 61 64 64 63 66 67 64 60 57 53 54 67 87 78 73 61 62 136 128 171 160 178 190 196
81 76 73 71 69 65 62 58 53 47 46 48 48 49 46 44 43 44 47 46 48 49 53 58 56 56 58 60 63 64 63 61 60 58 60 64 76 80 73 74 49 56 98 112 141 167 185 194 194
82 77 74 71 70 66 61 55 51 49 47 48 49 50 47 45 46 46 45 46 48 51 55 57 56 58 58 60 63 62 60 61 63 60 65 63 59 67 87 76 59 75 121 107 129 171 189 189 192
82 77 74 72 67 62 59 52 49 50 50 49 49 49 48 48 48 46 45 49 51 53 55 54 57 59 57 56 57 59 60 59 61 61 59 56 59 76 99 81 57 87 113 102 95 141 171 187 191
80 78 76 70 63 58 55 51 50 50 51 50 49 48 49 49 47 49 50 53 52 53 56 57 58 58 58 58 55 59 60 60 58 58 55 56 57 70 84 74 73 57 68 106 121 153 165 177 189
77 75 73 68 63 58 53 52 50 49 49 49 48 46 48 47 47 51 52 52 53 53 56 57 58 61 61 62 58 60 60 59 59 57 60 61 63 73 77 71 65 36 21 205 196 176 176 167 177
78 67 69 65 64 58 52 50 48 44 45 46 47 48 48 47 45 49 51 53 54 55 56 58 60 62 60 59 60 59 56 54 56 58 60 63 67 70 63 72 83 45 11 168 182 168 175 172 174
79 72 66 62 61 56 51 47 44 43 43 42 44 46 46 44 45 51 52 54 56 60 60 60 61 61 59 61 61 55 51 52 54 52 55 57 64 65 59 72 77 64 75 121 161 167 167 170 173
80 82 70 63 60 55 50 45 44 43 42 40 40 40 43 44 43 48 53 57 58 61 61 62 59 58 55 55 59 55 54 56 58 57 60 59 58 60 61 61 60 71 80 84 112 145 160 173 176
90 83 70 61 57 51 49 41 41 43 42 37 33 36 40 41 41 46 52 58 58 58 58 58 59 59 55 50 47 51 55 58 62 60 58 54 52 53 56 59 63 72 83 92 109 116 141 160 171
111 85 55 46 47 46 47 41 39 40 39 35 31 31 35 41 43 47 53 57 58 55 54 55 58 55 53 48 47 51 56 60 61 60 57 52 52 50 45 50 62 70 74 90 105 117 138 155 167
158 71 31 18 26 37 38 38 37 35 31 33 29 27 30 36 41 46 49 53 54 53 53 54 52 48 46 46 42 43 47 52 54 55 53 47 46 49 47 47 46 55 62 68 80 101 153 212 224
218 306 350 1 4 24 30 36 26 22 21 28 28 27 25 29 37 39 40 44 43 42 46 51 47 40 39 38 37 35 38 42 47 53 47 39 35 36 36 33 38 39 36 35 51 0 311 297 269
257 274 292 342 360 6 20 28 19 17 22 22 21 25 24 24 33 34 33 33 32 34 41 46 42 36 34 31 30 29 32 35 38 43 42 32 26 25 20 17 18 21 12 350 339 341 311 296 270
254 284 288 319 339 356 15 16 11 10 13 16 18 23 20 19 23 24 24 26 27 29 32 36 37 31 26 24 24 23 24 26 31 37 36 24 17 8 3 356 345 344 341 338 331 329 320 296 277
256 271 281 293 303 332 356 3 5 6 3 5 9 20 22 22 22 18 16 17 19 21 23 24 25 21 15 14 13 12 14 16 19 20 20 12 1 352 349 342 348 342 332 319 315 317 320 306 293
253 259 266 272 271 296 312 330 336 348 345 345 349 359 11 11 13 11 7 6 7 10 9 10 9 10 2 358 360 0 358 358 358 354 350 349 344 339 332 329 330 331 329 322 311 302 308 295 283
254 256 260 262 265 283 289 296 305 314 321 329 334 339 350 349 343 345 349 354 355 355 355 358 358 359 355 352 348 345 345 344 340 337 336 336 335 333 328 325 327 324 326 329 322 310 305 297 291
247 254 258 260 262 272 285 288 293 300 307 314 323 332 339 339 341 337 333 340 342 343 345 348 348 342 339 338 337 335 331 330 327 325 328 325 324 324 322 322 324 327 324 320 314 308 307 299 296
239 247 257 261 269 276 281 283 284 293 296 303 320 327 330 332 341 341 332 330 331 337 339 340 335 333 331 329 326 320 316 313 313 311 311 312 312 309 310 313 314 314 312 307 303 302 303 297 290
236 243 253 263 268 275 282 284 286 289 295 293 308 314 322 329 333 332 324 324 323 327 329 328 330 328 323 321 321 317 310 307 304 299 302 305 303 302 302 304 306 305 305 305 302 297 298 298 299
242 244 253 264 271 281 283 285 287 287 292 288 297 304 309 317 325 323 322 319 316 314 317 317 320 321 319 317 316 313 309 306 303 298 297 297 296 299 301 302 302 299 298 298 299 297 297 296 295
244 244 252 263 270 278 282 285 287 287 290 287 293 301 307 305 310 315 316 313 309 309 309 311 312 311 308 309 308 306 306 303 300 298 296 295 293 294 294 296 298 296 295 295 295 294 296 296 295
245 245 250 257 264 271 274 279 282 278 283 287 291 297 302 301 305 312 313 309 306 305 307 307 304 301 302 305 307 306 306 306 301 297 296 295 295 295 294 292 293 294 293 294 293 292 294 295 295
246 248 250 256 265 273 276 279 284 281 284 286 289 294 297 301 305 307 308 306 299 297 298 301 302 300 300 302 304 304 305 303 298 295 293 294 294 293 294 293 294 295 293 293 293 293 294 296 296
244 247 252 260 265 271 276 280 283 284 286 287 289 293 295 297 302 307 308 308 301 296 296 299 303 304 302 300 301 301 301 299 297 293 292 294 295 295 295 295 295 295 293 291 291 290 291 293 293
247 251 255 260 264 267 273 279 281 281 283 285 289 294 297 300 299 303 305 306 305 305 303 300 298 298 298 299 301 300 299 299 297 294 295 295 295 296 297 297 296 295 294 292 291 290 290 291 293
Height
5883 5883 5883 5882 5882 5880 5878 5877 5876 5875 5874 5872 5871 5870 5869 5868 5868 5869 5866 5864 5863 5861 5859 5857 5854 5851 5851 5852 5854 5856 5856 5857 5857 5858 5858 5859 5860 5861 5861 5862 5862 5863 5863 5863 5864 5864 5865 5866 5867
5885 5885 5885 5884 5882 5881 5880 5878 5877 5876 5875 5873 5872 5871 5870 5869 5868 5867 5866 5865 5864 5862 5860 5858 5856 5854 5853 5854 5855 5856 5856 5856 5856 5857 5857 5858 5859 5860 5861 5861 5862 5862 5862 5862 5863 5863 5863 5864 5866
5887 5886 5887 5885 5883 5882 5882 5880 5878 5877 5876 5875 5873 5872 5871 5870 5869 5868 5866 5865 5864 5863 5861 5860 5858 5857 5856 5856 5856 5856 5856 5856 5856 5855 5855 5856 5857 5859 5860 5860 5861 5861 5861 5861 5861 5862 5862 5863 5864
5889 5889 5888 5887 5884 5884 5882 5881 5880 5879 5877 5876 5875 5874 5872 5871 5870 5869 5867 5866 5865 5864 5863 5861 5860 5859 5858 5857 5857 5857 5857 5857 5856 5856 5855 5855 5856 5858 5859 5860 5860 5860 5860 5860 5860 5860 5861 5862 5864
5891 5890 5889 5887 5886 5885 5884 5883 5882 5880 5879 5878 5877 5875 5874 5873 5871 5869 5868 5868 5866 5865 5864 5862 5861 5860 5860 5859 5859 5858 5858 5858 5857 5857 5856 5856 5856 5858 5858 5859 5859 5859 5859 5859 5859 5859 5860 5861 5863
5892 5891 5890 5889 5888 5886 5885 5884 5883 5882 5881 5879 5878 5877 5875 5874 5872 5870 5869 5868 5867 5866 5865 5864 5863 5862 5862 5861 5860 5860 5859 5859 5859 5858 5857 5857 5857 5857 5858 5858 5859 5858 5858 5858 5858 5858 5859 5860 5862
5894 5892 5891 5890 5889 5888 5887 5886 5885 5883 5883 5881 5880 5878 5876 5875 5873 5872 5870 5869 5868 5867 5866 5866 5865 5864 5863 5862 5862 5861 5861 5861 5860 5859 5858 5856 5854 5855 5856 5858 5858 5858 5857 5857 5857 5857 5858 5860 5862
5894 5895 5892 5892 5891 5890 5889 5888 5887 5886 5884 5883 5882 5880 5878 5877 5875 5873 5872 5871 5869 5869 5868 5867 5866 5865 5865 5864 5864 5863 5862 5862 5861 5860 5858 5856 5853 5853 5855 5857 5858 5858 5857 5857 5857 5858 5858 5859 5861
5896 5896 5894 5893 5893 5892 5891 5890 5889 5888 5886 5885 5883 5882 5880 5878 5877 5875 5874 5873 5871 5870 5869 5869 5868 5868 5867 5866 5865 5864 5864 5863 5862 5861 5860 5858 5856 5855 5857 5857 5858 5857 5856 5856 5857 5857 5858 5860 5861
5897 5897 5896 5895 5894 5894 5893 5891 5891 5889 5888 5887 5885 5883 5881 5880 5878 5877 5876 5874 5873 5872 5871 5870 5870 5869 5869 5868 5867 5866 5865 5865 5864 5863 5863 5861 5860 5859 5859 5859 5858 5858 5856 5854 5855 5857 5859 5860 5862
5898 5898 5898 5897 5896 5895 5894 5893 5892 5891 5890 5888 5887 5885 5883 5882 5880 5879 5877 5876 5874 5873 5872 5872 5871 5871 5871 5870 5869 5868 5868 5867 5866 5866 5865 5864 5863 5862 5861 5861 5860 5858 5856 5853 5854 5857 5859 5861 5862
5899 5899 5898 5898 5897 5896 5895 5894 5893 5892 5891 5890 5889 5887 5885 5884 5882 5880 5879 5878 5876 5875 5874 5874 5873 5873 5872 5872 5871 5870 5869 5869 5868 5867 5866 5866 5865 5864 5863 5862 5861 5860 5858 5857 5857 5859 5860 5861 5862
5899 5900 5899 5899 5898 5897 5896 5896 5894 5894 5893 5891 5890 5889 5887 5885 5884 5882 5880 5879 5878 5877 5877 5876 5875 5874 5874 5873 5872 5872 5871 5870 5870 5869 5868 5867 5867 5866 5865 5864 5863 5862 5861 5860 5860 5861 5862 5862 5863
5900 5900 5899 5899 5899 5898 5898 5897 5896 5895 5894 5893 5891 5890 5888 5887 5885 5884 5882 5881 5880 5879 5878 5877 5877 5876 5875 5874 5873 5872 5872 5871 5871 5870 5869 5869 5868 5867 5866 5865 5864 5864 5863 5862 5862 5863 5863 5863 5864
5900 5900 5901 5900 5899 5899 5899 5898 5897 5896 5895 5894 5893 5891 5890 5888 5887 5885 5884 5883 5881 5880 5879 5879 5878 5877 5876 5876 5875 5874 5873 5872 5871 5871 5870 5870 5869 5868 5867 5866 5866 5865 5864 5864 5864 5864 5864 5864 5864
5900 5901 5901 5901 5899 5899 5901 5899 5898 5897 5896 5895 5894 5892 5890 5889 5888 5887 5885 5884 5883 5882 5881 5880 5879 5879 5878 5877 5876 5875 5874 5873 5872 5872 5871 5870 5870 5869 5868 5867 5866 5866 5865 5865 5865 5864 5864 5864 5864
5900 5900 5900 5901 5900 5899 5899 5899 5899 5898 5897 5896 5894 5892 5891 5890 5889 5888 5887 5885 5884 5883 5881 5881 5880 5879 5879 5878 5877 5876 5875 5874 5873 5873 5872 5871 5870 5869 5869 5868 5867 5866 5866 5865 5865 5864 5864 5864 5863
5900 5900 5900 5900 5900 5899 5899 5899 5899 5898 5897 5896 5894 5893 5892 5891 5890 5889 5887 5886 5885 5884 5883 5882 5881 5880 5879 5878 5878 5877 5876 5875 5874 5873 5872 5871 5870 5869 5869 5868 5867 5866 5866 5865 5865 5864 5864 5863 5863
5899 5899 5899 5900 5899 5899 5899 5899 5898 5897 5897 5896 5895 5893 5892 5891 5890 5889 5888 5887 5886 5885 5883 5882 5881 5880 5880 5879 5878 5877 5876 5875 5874 5873 5872 5871 5871 5870 5869 5868 5867 5866 5866 5865 5864 5863 5863 5863 5862
5897 5898 5898 5899 5899 5898 5898 5898 5898 5897 5896 5895 5894 5893 5892 5892 5891 5889 5888 5887 5886 5885 5884 5883 5881 5880 5880 5879 5878 5877 5876 5875 5874 5873 5872 5871 5871 5870 5869 5868 5867 5866 5865 5864 5864 5863 5862 5861 5861
5896 5896 5897 5897 5898 5897 5898 5898 5897 5897 5896 5895 5894 5893 5892 5891 5891 5889 5888 5887 5886 5885 5884 5883 5881 5880 5879 5879 5878 5877 5876 5875 5874 5873 5872 5871 5870 5869 5868 5867 5866 5865 5864 5863 5863 5862 5862 5861 5860
5894 5895 5896 5896 5896 5896 5897 5897 5896 5895 5895 5894 5893 5892 5892 5891 5890 5889 5888 5887 5886 5884 5883 5882 5881 5880 5879 5878 5877 5876 5875 5874 5873 5872 5871 5870 5869 5868 5867 5866 5865 5864 5863 5862 5861 5861 5860 5859 5859
5893 5893 5894 5894 5894 5895 5895 5895 5896 5895 5894 5893 5893 5892 5891 5890 5889 5888 5887 5886 5885 5884 5883 5881 5880 5879 5878 5877 5876 5875 5874 5873 5872 5871 5870 5869 5868 5867 5866 5865 5864 5863 5862 5861 5860 5859 5858 5857 5857
5891 5892 5892 5892 5893 5894 5894 5894 5894 5894 5893 5892 5892 5891 5890 5889 5888 5887 5886 5885 5884 5883 5882 5880 5879 5878 5877 5876 5875 5874 5873 5872 5870 5869 5868 5867 5866 5865 5864 5863 5862 5861 5860 5859 5858 5857 5856 5855 5854
5889 5891 5891 5891 5891 5892 5892 5892 5893 5892 5892 5891 5890 5890 5889 5888 5887 5886 5885 5884 5883 5882 5881 5879 5878 5877 5876 5875 5874 5872 5871 5870 5868 5867 5866 5865 5864 5863 5862 5861 5860 5859 5858 5857 5856 5855 5854 5853 5852
5887 5888 5889 5890 5889 5890 5890 5890 5892 5891 5890 5890 5889 5888 5888 5887 5886 5885 5884 5883 5881 5880 5879 5878 5876 5875 5874 5873 5872 5870 5869 5867 5866 5865 5864 5863 5862 5861 5860 5858 5857 5856 5855 5854 5853 5851 5850 5849 5848
5884 5885 5887 5887 5887 5888 5888 5889 5890 5889 5889 5888 5888 5887 5886 5885 5884 5883 5882 5881 5879 5878 5877 5876 5874 5873 5872 5871 5869 5868 5867 5865 5864 5863 5861 5860 5859 5858 5857 5855 5854 5853 5851 5850 5849 5848 5847 5846 5845
5882 5883 5883 5884 5884 5884 5885 5886 5887 5887 5887 5886 5886 5885 5884 5884 5882 5881 5880 5879 5877 5876 5875 5873 5872 5870 5869 5868 5866 5865 5864 5862 5861 5859 5858 5856 5855 5854 5853 5852 5850 5849 5848 5847 5845 5844 5843 5842 5841
5878 5880 5880 5881 5882 5882 5882 5885 5884 5884 5884 5884 5883 5883 5882 5881 5880 5879 5877 5876 5875 5873 5872 5870 5869 5867 5866 5864 5863 5862 5860 5859 5857 5855 5854 5853 5852 5850 5849 5848 5846 5845 5844 5842 5841 5840 5839 5838 5837
5874 5876 5877 5878 5879 5879 5879 5883 5881 5881 5881 5881 5880 5880 5879 5878 5877 5876 5874 5873 5871 5870 5868 5867 5865 5863 5862 5861 5859 5857 5856 5855 5853 5852 5850 5849 5847 5846 5844 5843 5842 5840 5839 5837 5836 5835 5834 5833 5831